Location: Clandonald
(53.5720°N, 110.7141°W)
Time: 16:39:36
(UTC+00:00)

Envisat - Pass Details

Date: 25 October 2019
Orbit: 764 x 766 km, 98.1° (Epoch: 18 November)

Event Time Altitude Azimuth Distance (km) Brightness Sun altitude
Rises 02:44:20 0° 211° (SSW) 3,225 6.5 -24.0°
Reaches altitude 10° 02:47:23 10° 231° (SW) 2,304 5.9 -24.4°
Maximum altitude 02:50:47 18° 273° (W) 1,824 5.8 -24.9°
Drops below altitude 10° 02:54:13 10° 316° (NW) 2,315 6.2 -25.4°
Sets 02:57:17 0° 335° (NNW) 3,247 6.8 -25.8°
